User: anonymous   Login
Location: Griffin Ranch
(33.6186°N, 110.6622°W)
Time: 06:53:04
(UTC-07:00)
Language:

Cosmos 1812 - Orbit

View from above orbital plane
View from above orbital plane
View from above satellite
View from above satellite

Ground track
Ground track

The orbit data is extracted from the following two-line orbital elements,

1 17295U 87003A   14304.15756741  .00005567  00000-0  34052-3 0  4591
2 17295 082.5155 007.3195 0003551 174.0153 244.3625 15.10052601513806
Epoch (UTC): 31 October 2014 03:46:53
Eccentricity: 0.0003551
inclination: 82.5155°
perigee height: 533 km
apogee height: 538 km
right ascension of ascending node: 7.3195°
argument of perigee: 174.0153°
revolutions per day: 15.10052601
mean anomaly at epoch: 244.3625°
orbit number at epoch: 51380

The dashed part of the orbit path shows where the satellite is in the earth's shadow,  

DLR